Le nostre stazioni meteo in Italia

Pubblicità
Il mio iltempo24.it
Fyvie castle, Gran Bretagna (99010): Temperatura & dewpoint: 15.08.2019 13:00:00 - 21.08.2019 13:00:00 (BST)Fyvie castle, Gran Bretagna (99010): precipitazioni: 15.08.2019 13:00:00 - 21.08.2019 13:00:00 (BST)
Data & Tempo tt [°C] td [°C] rr [mm]
21.08.2019 13:00:00 17,9 10,6 0,0
21.08.2019 12:00:00 18,2 10,6 0,0
21.08.2019 11:00:00 16,4 12,3 0,0
21.08.2019 10:00:00 14,5 12,1 0,0
21.08.2019 09:00:00 12,7 11,9 0,0
21.08.2019 08:00:00 10,2 10,2 0,0
21.08.2019 07:00:00 6,7 6,7 0,0
21.08.2019 06:00:00 5,0 4,8 0,0
21.08.2019 05:00:00 5,0 4,7 0,0
21.08.2019 04:00:00 5,7 5,2 0,0
21.08.2019 03:00:00 6,5 6,0 0,0
21.08.2019 02:00:00 7,7 7,0 0,0
21.08.2019 01:00:00 9,3 8,7 0,0
21.08.2019 00:00:00 10,2 9,9 0,0
20.08.2019 23:00:00 10,0 9,6 0,0
20.08.2019 22:00:00 10,1 9,1 0,0
20.08.2019 21:00:00 11,6 9,4 0,0
20.08.2019 20:00:00 13,7 9,9 0,0
20.08.2019 19:00:00 14,6 9,3 0,0
20.08.2019 18:00:00 15,2 9,5 0,0
20.08.2019 17:00:00 16,3 7,8 0,0
20.08.2019 16:00:00 16,0 7,7 0,0
20.08.2019 15:00:00 16,8 7,5 0,0
20.08.2019 14:00:00 15,9 7,7 0,0
20.08.2019 13:00:00 14,7 8,2 0,0
20.08.2019 12:00:00 13,7 7,4 0,0
20.08.2019 11:00:00 13,6 7,5 0,0
20.08.2019 10:00:00 13,2 7,4 0,0
20.08.2019 09:00:00 12,2 8,5 0,0
20.08.2019 08:00:00 12,0 9,3 0,0
20.08.2019 07:00:00 10,8 9,0 0,0
20.08.2019 06:00:00 10,0 8,6 0,0
20.08.2019 05:00:00 10,2 9,3 0,0
20.08.2019 04:00:00 9,6 9,3 0,0
20.08.2019 03:00:00 9,8 8,8 0,0
20.08.2019 02:00:00 10,7 9,5 0,0
20.08.2019 01:00:00 11,0 9,8 0,0
20.08.2019 00:00:00 11,9 10,2 0,0
19.08.2019 23:00:00 11,9 10,0 0,0
19.08.2019 22:00:00 12,4 11,1 0,0
19.08.2019 21:00:00 12,8 11,5 0,0
19.08.2019 20:00:00 13,4 11,6 0,4
19.08.2019 19:00:00 15,5 9,5 0,0
19.08.2019 18:00:00 17,0 8,7 0,0
19.08.2019 17:00:00 18,4 8,4 0,0
19.08.2019 16:00:00 18,7 8,1 0,0
19.08.2019 15:00:00 19,4 8,6 0,0
19.08.2019 14:00:00 18,4 9,3 0,0
19.08.2019 13:00:00 19,4 9,6 0,0
19.08.2019 12:00:00 18,0 9,2 0,0
19.08.2019 11:00:00 16,0 9,9 0,0
19.08.2019 10:00:00 16,1 10,2 0,0
19.08.2019 09:00:00 14,8 10,3 0,0
19.08.2019 08:00:00 13,0 10,0 0,0
19.08.2019 07:00:00 11,1 9,1 0,0
19.08.2019 06:00:00 12,3 8,9 0,0
19.08.2019 05:00:00 11,8 9,0 0,0
19.08.2019 04:00:00 11,8 8,8 0,0
19.08.2019 03:00:00 11,7 9,1 0,0
19.08.2019 02:00:00 12,2 9,6 0,0
19.08.2019 01:00:00 11,2 9,1 0,0
19.08.2019 00:00:00 12,9 9,2 0,0
18.08.2019 23:00:00 13,3 9,7 0,0
18.08.2019 22:00:00 13,7 9,7 0,0
18.08.2019 21:00:00 14,3 10,1 0,0
18.08.2019 20:00:00 15,2 10,1 0,0
18.08.2019 19:00:00 16,0 10,4 0,0
18.08.2019 18:00:00 16,6 10,2 0,2
18.08.2019 17:00:00 18,0 8,7 0,0
18.08.2019 16:00:00 18,5 10,4 0,0
18.08.2019 15:00:00 17,9 9,5 0,0
18.08.2019 14:00:00 18,0 10,7 0,0
18.08.2019 13:00:00 17,0 10,3 0,0
18.08.2019 12:00:00 18,5 10,1 0,0
18.08.2019 11:00:00 15,8 10,5 0,0
18.08.2019 10:00:00 14,0 10,4 0,0
18.08.2019 09:00:00 13,5 10,2 0,0
18.08.2019 08:00:00 12,7 9,9 0,0
18.08.2019 07:00:00 12,4 9,6 0,0
18.08.2019 06:00:00 12,3 9,3 0,0
18.08.2019 05:00:00 12,3 9,2 0,0
18.08.2019 04:00:00 12,3 9,3 0,0
18.08.2019 03:00:00 12,4 9,4 0,0
18.08.2019 02:00:00 12,7 9,6 0,0
18.08.2019 01:00:00 12,8 9,5 0,0
18.08.2019 00:00:00 12,8 8,9 0,0
17.08.2019 23:00:00 12,8 7,8 0,0
17.08.2019 22:00:00 13,2 7,4 0,0
17.08.2019 21:00:00 13,8 7,9 0,0
17.08.2019 20:00:00 14,9 9,1 0,0
17.08.2019 19:00:00 15,3 8,2 0,0
17.08.2019 18:00:00 16,4 5,4 0,0
17.08.2019 17:00:00 18,0 6,5 0,0
17.08.2019 16:00:00 18,4 7,4 0,0
17.08.2019 15:00:00 17,3 8,5 0,0
17.08.2019 14:00:00 16,1 9,5 0,4
17.08.2019 13:00:00 16,0 7,9 0,0
17.08.2019 12:00:00 18,5 9,1 0,0
17.08.2019 11:00:00 17,0 9,6 0,0
17.08.2019 10:00:00 15,7 9,6 0,0
17.08.2019 09:00:00 13,5 10,5 0,0
17.08.2019 08:00:00 12,5 12,4 0,0
17.08.2019 07:00:00 11,6 11,6 0,2
17.08.2019 06:00:00 11,4 11,3 0,0
17.08.2019 05:00:00 11,8 11,7 0,0
17.08.2019 04:00:00 11,7 11,7 0,0
17.08.2019 03:00:00 11,7 11,3 0,2
17.08.2019 02:00:00 12,7 12,4 0,0
17.08.2019 01:00:00 14,0 13,7 1,8
17.08.2019 00:00:00 14,3 13,9 2,6
16.08.2019 23:00:00 14,4 13,8 0,0
16.08.2019 22:00:00 14,8 14,2 0,0
16.08.2019 21:00:00 15,0 14,1 0,0
16.08.2019 20:00:00 16,6 15,4 0,0
16.08.2019 19:00:00 16,6 14,4 0,6
16.08.2019 18:00:00 18,7 14,9 0,0
16.08.2019 17:00:00 18,1 14,4 0,0
16.08.2019 16:00:00 17,0 14,0 0,0
16.08.2019 15:00:00 15,8 13,5 0,0
16.08.2019 14:00:00 15,2 13,0 0,0
16.08.2019 13:00:00 15,0 13,1 0,0
16.08.2019 12:00:00 14,7 13,2 0,0
16.08.2019 11:00:00 14,0 12,9 0,0
16.08.2019 10:00:00 14,0 13,1 0,4
16.08.2019 09:00:00 13,9 13,4 0,8
16.08.2019 08:00:00 13,3 12,9 1,0
16.08.2019 07:00:00 12,7 12,3 0,2
16.08.2019 06:00:00 12,3 11,9 0,2
16.08.2019 05:00:00 11,7 11,3 0,6
16.08.2019 04:00:00 11,9 11,2 1,4
16.08.2019 03:00:00 12,1 10,7 0,2
16.08.2019 02:00:00 12,0 9,3 0,0
16.08.2019 01:00:00 11,5 9,0 0,0
16.08.2019 00:00:00 9,6 9,3 0,0
15.08.2019 23:00:00 8,1 7,7 0,0
15.08.2019 22:00:00 8,8 7,5 0,0
15.08.2019 21:00:00 10,9 8,6 0,0
15.08.2019 20:00:00 13,7 9,7 0,0
15.08.2019 19:00:00 15,2 7,6 0,0
15.08.2019 18:00:00 16,0 6,9 0,0
15.08.2019 17:00:00 16,4 6,6 0,0
15.08.2019 16:00:00 16,1 7,0 0,0
15.08.2019 15:00:00 16,2 7,0 0,0
15.08.2019 14:00:00 15,5 8,5 0,0
15.08.2019 13:00:00 15,1 9,7 0,0

tt = Temperatura
td = dewpoint
rr = precipitazioni

Stazioni seguenti

WeatherPro
AMSI
MeteoEarth